Location: Frankfurt+(oder)
(51.7984°N, 12.2168°E)
Time: 06:30:47
(UTC+01:00)

ISS - Pass Details

Date: 12 November 2017
Orbit: 402 x 407 km, 51.6° (Epoch: 23 November)

Event Time Altitude Azimuth Distance (km) Brightness Sun altitude
Exits shadow 05:52:20 29° 260° (W) 776 -2.9 -14.3°
Maximum altitude 05:53:39 49° 202° (SSW) 531 -3.4 -14.1°
Drops below altitude 10° 05:56:48 10° 126° (SE) 1,454 0.1 -13.6°
Sets 05:58:54 0° 121° (ESE) 2,311 1.5 -13.3°
